Buckhead, Georgia, United States (30625)
Lat: 33.57N, Lon: 83.36W
Wx Zone: GAZ049
Local Info
Past Weather Observations for Today

NOTE: This archive is for the closest National Weather Service station to Buckhead. Information may differ from the station used for current weather conditions.

Click here for Long-term Archive

Time Weather Temperature Dewpoint Humidity Pressure Winds Precip Visibility
07:55
Overcast
Fog And Mist
59°F / 15°C N/A N/A 30.09 in
(1019 mb)
NNW 3.5 mph
(NNW 6 kph)
- 3/4SM
07:35
Overcast
Fog
59°F / 15°C N/A N/A 30.09 in
(1019 mb)
NNW 3.5 mph
(NNW 6 kph)
- 1/2SM
07:15
Overcast
Fog
59°F / 15°C N/A N/A 30.09 in
(1019 mb)
Calm - 1/2SM
06:55
Overcast
Fog And Mist
59°F / 15°C N/A N/A 30.09 in
(1019 mb)
Calm - 1SM
06:35
Overcast
Fog
59°F / 15°C N/A N/A 30.09 in
(1019 mb)
Calm - 1/2SM
06:15
Overcast
Fog And Mist
59°F / 15°C N/A N/A 30.06 in
(1018 mb)
Calm - 1SM
05:55
Overcast
Fog And Mist
59°F / 15°C N/A N/A 30.06 in
(1018 mb)
Calm - 3/4SM
05:35
Overcast
Fog And Mist
61°F / 16°C N/A N/A 30.06 in
(1018 mb)
Calm - 3/4SM
05:15
Overcast
Fog And Mist
61°F / 16°C N/A N/A 30.06 in
(1018 mb)
Calm - 3/4SM
04:55
Overcast
Fog And Mist
61°F / 16°C N/A N/A 30.06 in
(1018 mb)
Calm - 1 1/4SM
04:35
Overcast
Fog And Mist
61°F / 16°C N/A N/A 30.06 in
(1018 mb)
Calm - 2 1/2SM
04:15
Overcast
Hazy
61°F / 16°C N/A N/A 30.06 in
(1018 mb)
Calm - 4SM
03:55
Overcast
Hazy
61°F / 16°C N/A N/A 30.06 in
(1018 mb)
Calm - 4SM
03:35
Overcast
Heavy Rain
61°F / 16°C N/A N/A 30.06 in
(1018 mb)
Calm - 3SM
03:15
Overcast
Hazy
61°F / 16°C N/A N/A 30.06 in
(1018 mb)
Calm - 4SM
02:55
Overcast
Hazy
61°F / 16°C N/A N/A 30.06 in
(1018 mb)
Calm - 4SM
02:35
Overcast
Hazy
61°F / 16°C N/A N/A 30.06 in
(1018 mb)
Calm - 4SM
02:15
Overcast
61°F / 16°C N/A N/A 30.06 in
(1018 mb)
Calm - 7SM
01:55
Overcast
63°F / 17°C N/A N/A 30.06 in
(1018 mb)
Calm - 7SM
01:35
Overcast
63°F / 17°C N/A N/A 30.06 in
(1018 mb)
N 3.5 mph
(N 6 kph)
- 7SM
01:15
Overcast
63°F / 17°C N/A N/A 30.06 in
(1018 mb)
Calm - 7SM
00:55
Overcast
63°F / 17°C N/A N/A 30.06 in
(1018 mb)
Calm - 7SM
00:35
Overcast
63°F / 17°C N/A N/A 30.06 in
(1018 mb)
Calm - 7SM
00:15
Overcast
63°F / 17°C N/A N/A 30.09 in
(1019 mb)
Calm - 7SM
Time Weather Temperature Dewpoint Humidity Pressure Winds Precip Visibility


Weather for websites

WeatherForYou.com, LLC is not responsible for any damages or problems caused by this service. Current weather conditions are obtained from the closest station including government and personal stations which may have varying degrees of accuracy. Weather forecasts are derived from the NOAA NDFD. Like all things, this site belongs to Jesus Christ... He just trusts us to maintain it. If you have any questions or comments email webmaster@weatherforyou.com

Copyright © 2015, WeatherForYou.com LLC. All rights reserved.